Weather History for KUUU - October, 2011

Change the Weather History Date:

Thursday, October 27, 2011

  Actual Average Record
Temperature  
Mean Temperature 44 °F -  
Max Temperature 51 °F 57 °F 74 °F (1977)
Min Temperature 36 °F 43 °F 29 °F (1976)
Degree Days  
Heating Degree Days 22    
Moisture  
Dew Point 45 °F    
Average Humidity 96    
Maximum Humidity 100    
Minimum Humidity 93    
Precipitation  
Precipitation 0.38 in - - ()
Sea Level Pressure  
Sea Level Pressure 29.68 in    
Wind  
Wind Speed 8 mph (NNE)    
Max Wind Speed 22 mph    
Max Gust Speed 32 mph    
Visibility 6 miles    
Events Rain    
Averages and records for this station are not official NWS values.
T = Trace of Precipitation, MM = Missing Value Source: NWS Daily Summary

Daily Weather History Graph

Daily Weather History Graph

Search for Another Location

Airport or City:

Trip Planner

Search our weather history database for the weather conditions in past years. The results will help you decide how hot, cold, wet, or windy it might be!

Date:

Astronomy

Oct. 27, 2011 Rise Set
Actual Time 7:10 AM EDT 5:46 PM EDT
Civil Twilight 6:42 AM EDT 6:15 PM EDT
Nautical Twilight 6:09 AM EDT 6:47 PM EDT
Astronomical Twilight 5:37 AM EDT 7:19 PM EDT
Moon 8:11 AM EDT (10/27) 6:11 PM EDT (10/27)
Length of Visible Light 11h 33m
Length of Day
10h 36m
New Moon, 1% of the Moon is Illuminated
Oct 27
New Moon
Nov 2
First Quarter
Nov 10
Full
Nov 18
Last Quarter
Nov 25
New

Hourly Weather History & Observations

Time (EDT) Temp. Windchill Dew Point Humidity Pressure Visibility Wind Dir Wind Speed Gust Speed Precip Events Conditions
12:53 AM 48.9 °F - 46.9 °F 93% 29.75 in 10.0 mi East 3.5 mph - N/A   Overcast
1:53 AM 48.9 °F - 46.9 °F 93% 29.74 in 10.0 mi Calm Calm - N/A   Overcast
2:53 AM 48.9 °F - 46.9 °F 93% 29.73 in 10.0 mi Calm Calm - N/A   Overcast
3:53 AM 50.0 °F - 48.0 °F 93% 29.70 in 10.0 mi Calm Calm - N/A   Overcast
4:53 AM 50.0 °F - 48.9 °F 96% 29.70 in 10.0 mi Calm Calm - N/A   Overcast
5:48 AM 51.8 °F - 50.0 °F 94% 29.70 in 7.0 mi North 3.5 mph - 0.00 in Rain Rain
5:53 AM 51.1 °F - 50.0 °F 96% 29.70 in 6.0 mi Calm Calm - 0.01 in Rain Rain
6:17 AM 50.0 °F - 48.2 °F 94% 29.69 in 7.0 mi North 5.8 mph - 0.01 in Rain Light Rain
8:53 AM 46.0 °F 40.6 °F 45.0 °F 96% 29.72 in 2.5 mi North 11.5 mph - 0.04 in Rain Rain
9:24 AM 46.4 °F 39.8 °F 46.4 °F 100% 29.72 in 5.0 mi North 16.1 mph 19.6 mph 0.03 in Rain Light Rain
9:53 AM 46.9 °F - 46.0 °F 97% 29.70 in 3.0 mi NNE 15.0 mph 21.9 mph 0.05 in Rain Light Rain
10:08 AM 46.4 °F 40.4 °F 46.4 °F 100% 29.68 in 5.0 mi NE 13.8 mph 24.2 mph 0.00 in Rain Light Rain
10:46 AM 46.4 °F 42.4 °F 46.4 °F 100% 29.70 in 10.0 mi NNE 8.1 mph - 0.00 in   Overcast
10:53 AM 48.0 °F - 46.9 °F 96% 29.70 in 5.0 mi NNE 11.5 mph - 0.00 in Rain Rain
11:53 AM 48.0 °F - 48.0 °F 100% 29.69 in 9.0 mi North 6.9 mph - 0.03 in Rain Light Rain
12:53 PM 48.0 °F - 48.0 °F 100% 29.64 in 9.0 mi NE 10.4 mph - 0.00 in   Overcast
1:18 PM 48.2 °F - 46.4 °F 93% 29.64 in 10.0 mi NE 10.4 mph - 0.00 in   Overcast
1:53 PM 48.0 °F - 46.9 °F 96% 29.62 in 3.0 mi NE 12.7 mph - 0.00 in Rain Light Rain
2:00 PM 48.2 °F - 46.4 °F 93% 29.62 in 2.0 mi NE 13.8 mph 18.4 mph 0.00 in Rain Light Rain
2:16 PM 48.2 °F - 46.4 °F 93% 29.62 in 6.0 mi NNE 10.4 mph - 0.00 in Rain Light Rain
2:37 PM 48.2 °F - 46.4 °F 93% 29.62 in 2.5 mi NNE 11.5 mph - 0.02 in Rain Rain
2:44 PM 48.2 °F - 46.4 °F 93% 29.64 in 5.0 mi North 12.7 mph - 0.02 in Rain Light Rain
2:53 PM 48.0 °F - 46.9 °F 96% 29.64 in 5.0 mi NNE 13.8 mph 19.6 mph 0.03 in Rain Rain
2:56 PM 48.2 °F - 46.4 °F 93% 29.63 in 4.0 mi North 10.4 mph 19.6 mph 0.00 in Rain Rain
3:33 PM 46.4 °F 41.9 °F 46.4 °F 100% 29.65 in 4.0 mi North 9.2 mph - 0.03 in Rain Light Rain
3:51 PM 46.4 °F 41.9 °F 46.4 °F 100% 29.64 in 2.5 mi North 9.2 mph - 0.04 in Rain Rain
3:53 PM 46.0 °F 42.5 °F 46.0 °F 100% 29.65 in 2.5 mi NNW 6.9 mph - 0.04 in Rain Rain
4:02 PM 46.4 °F 39.8 °F 44.6 °F 93% 29.65 in 3.0 mi North 16.1 mph 20.7 mph 0.01 in Rain Rain
4:13 PM 46.4 °F 39.8 °F 44.6 °F 93% 29.65 in 4.0 mi North 16.1 mph 23.0 mph 0.01 in Rain Light Rain
4:33 PM 44.6 °F 37.8 °F 44.6 °F 100% 29.63 in 4.0 mi NNE 15.0 mph 20.7 mph 0.02 in Rain Light Rain
4:36 PM 44.6 °F 37.4 °F 44.6 °F 100% 29.62 in 4.0 mi NNE 16.1 mph 20.7 mph 0.02 in Rain Rain
4:53 PM 45.0 °F 39.7 °F 44.1 °F 97% 29.62 in 5.0 mi NNE 10.4 mph 18.4 mph 0.02 in Rain Light Rain
5:06 PM 44.6 °F 38.4 °F 44.6 °F 100% 29.62 in 7.0 mi NNE 12.7 mph - 0.00 in Rain Light Rain
5:29 PM 44.6 °F 37.8 °F 42.8 °F 93% 29.60 in 7.0 mi NE 15.0 mph 26.5 mph 0.02 in Rain Light Rain
5:53 PM 44.1 °F 37.4 °F 43.0 °F 96% 29.60 in 6.0 mi NE 13.8 mph 21.9 mph 0.04 in Rain Rain
6:53 PM 43.0 °F 34.5 °F 41.0 °F 93% 29.63 in 6.0 mi NNE 19.6 mph 26.5 mph 0.04 in Rain Light Rain
7:20 PM 42.8 °F 35.4 °F 41.0 °F 93% 29.66 in 3.0 mi North 15.0 mph 24.2 mph 0.04 in Rain Heavy Rain
7:23 PM 42.8 °F 35.4 °F 41.0 °F 93% 29.67 in 2.5 mi North 15.0 mph 24.2 mph 0.04 in Rain Heavy Rain
7:35 PM 39.2 °F 30.5 °F 39.2 °F 100% 29.68 in 4.0 mi North 16.1 mph 29.9 mph 0.06 in Rain Light Rain
7:53 PM 37.9 °F 27.3 °F 37.9 °F 100% 29.70 in 6.0 mi North 21.9 mph 32.2 mph 0.06 in Rain Light Rain
9:53 PM 36.0 °F 26.3 °F 35.1 °F 97% 29.77 in 9.0 mi North 16.1 mph 24.2 mph 0.02 in Rain Light Rain
10:53 PM 36.0 °F 27.1 °F 35.1 °F 97% 29.82 in 10.0 mi North 13.8 mph 26.5 mph 0.00 in Rain Light Rain
11:48 PM 37.4 °F 27.8 °F 35.6 °F 93% 29.85 in 10.0 mi North 17.3 mph 31.1 mph 0.00 in   Overcast
11:53 PM 37.0 °F 27.4 °F 35.1 °F 93% 29.85 in 10.0 mi North 17.3 mph 28.8 mph 0.00 in   Overcast